This is the latest recevied weather packets stored in our database for station/object OE2WAO-15. If no packets are shown the sender has not sent any weather packets the latest 10 day(s).
| Time | Temp. | Humidity | Pressure | Rain* | Wind** | Luminosity | Snow |
|---|---|---|---|---|---|---|---|
| 1788005115 | 25.56° C | 96% | 1018 hPa | - | - | - | - |
| 1788004507 | 25.56° C | 89% | 1018.1 hPa | - | - | - | - |
| 1788003900 | 25.56° C | 99% | 1018.2 hPa | - | - | - | - |
| 1788003292 | 25.56° C | 98% | 1018.3 hPa | - | - | - | - |
| 1788002684 | 25° C | 99% | 1018.4 hPa | - | - | - | - |
| 1788002077 | 25° C | 93% | 1018.5 hPa | - | - | - | - |
| 1788001469 | 24.44° C | 99% | 1018.7 hPa | - | - | - | - |
| 1788000862 | 23.89° C | 99% | 1018.7 hPa | - | - | - | - |
| 1788000254 | 23.89° C | 99% | 1018.7 hPa | - | - | - | - |
| 1787999646 | 23.33° C | 99% | 1018.8 hPa | - | - | - | - |
| 1787999039 | 22.22° C | 99% | 1018.9 hPa | - | - | - | - |
| 1787998431 | 21.67° C | 99% | 1018.8 hPa | - | - | - | - |
| 1787997823 | 21.11° C | 99% | 1018.7 hPa | - | - | - | - |
| 1787997216 | 21.11° C | 99% | 1018.8 hPa | - | - | - | - |
| 1787996608 | 20.56° C | 99% | 1019 hPa | - | - | - | - |
| 1787996001 | 20.56° C | 99% | 1019.1 hPa | - | - | - | - |
| 1787995393 | 20° C | 99% | 1019.1 hPa | - | - | - | - |
| 1787994785 | 20° C | 99% | 1019.2 hPa | - | - | - | - |
| 1787994178 | 20° C | 99% | 1019.2 hPa | - | - | - | - |
| 1787993570 | 20° C | 99% | 1019.1 hPa | - | - | - | - |
| 1787992963 | 19.44° C | 99% | 1019.2 hPa | - | - | - | - |
| 1787992354 | 18.89° C | 99% | 1019.2 hPa | - | - | - | - |
| 1787991747 | 18.89° C | 99% | 1019.2 hPa | - | - | - | - |
| 1787991139 | 18.33° C | 99% | 1019.2 hPa | - | - | - | - |
| 1787990532 | 18.33° C | 99% | 1019.2 hPa | - | - | - | - |
* Rain since midnight (hover to see other rain measurements)
** Current wind speed in m/s (hover to see current wind gust speed)